Theta_e
323 322 321 319 319 321 324 330 331 331 332 334 336 337 338 337 337 335 333 333 333 329 330 331 327 330 330 331 330 331 332 332
324 323 322 321 320 320 322 328 331 332 333 333 335 336 336 337 336 335 333 333 333 325 326 328 326 328 328 327 329 330 331 332
329 324 323 322 321 320 321 325 330 332 332 332 333 334 335 335 335 335 333 333 332 331 328 328 324 326 328 327 328 329 330 330
337 326 328 324 322 321 321 324 328 332 332 332 331 331 332 333 333 334 332 331 330 329 327 326 325 323 328 327 327 329 330 330
342 328 327 325 324 323 321 322 325 331 333 332 331 331 333 333 333 333 332 330 329 327 328 325 323 325 327 326 328 331 330 329
343 343 336 326 326 325 331 334 334 336 336 336 336 335 334 333 333 332 332 329 328 328 327 326 324 324 326 326 328 329 327 326
341 344 342 330 332 335 337 338 334 336 336 335 335 335 334 333 333 332 332 331 330 328 327 326 325 325 326 326 327 327 329 328
340 342 339 335 336 340 334 329 326 331 334 332 332 333 333 332 333 332 331 330 329 328 326 326 326 325 326 327 326 328 327 327
340 339 340 337 341 332 328 326 327 326 326 330 333 333 334 332 331 332 331 330 329 327 326 325 325 326 328 327 326 326 325 325
337 338 339 337 339 333 328 328 328 328 325 327 332 331 332 331 331 331 331 330 329 328 325 325 326 328 327 325 325 325 324 322
331 337 336 338 338 339 339 333 328 326 325 328 331 331 332 331 330 331 330 329 328 327 325 325 325 327 326 326 325 324 322 321
333 337 335 339 338 339 338 336 330 325 332 330 329 329 331 330 330 330 329 328 327 327 325 326 325 326 327 323 324 322 322 321
331 335 334 339 337 339 337 334 329 326 324 324 326 329 329 329 328 329 329 328 327 327 324 325 325 326 324 324 322 321 320 319
331 332 334 338 336 339 334 331 329 326 322 323 329 328 328 328 327 329 330 329 327 327 325 324 324 324 324 323 322 322 321 321
334 334 337 338 337 338 333 332 331 329 326 325 328 328 328 327 327 328 327 327 327 326 327 324 322 322 323 322 322 321 320 320
333 337 339 337 338 335 333 331 330 327 325 325 326 328 328 327 327 327 327 327 328 328 327 326 323 324 324 322 320 320 320 321
329 338 339 338 338 335 334 331 330 328 325 327 327 328 328 327 328 327 326 326 326 327 326 326 323 322 323 323 320 321 320 320
330 336 338 338 337 335 333 331 329 328 327 326 327 326 326 325 325 325 325 326 325 325 325 325 325 321 323 322 321 320 322 322
331 335 337 336 335 334 333 331 329 328 326 327 325 327 325 324 324 324 324 324 325 325 323 324 324 321 321 322 321 318 323 322
335 336 335 335 334 333 332 331 329 327 327 327 326 325 324 323 323 323 323 324 324 325 325 325 324 321 321 321 321 321 322 322
Wind_Speed
16 15 12 10 9 9 10 12 13 12 12 13 12 13 16 16 17 19 22 18 19 17 5 8 8 11 15 17 17 13 12 13
18 18 15 12 10 10 11 13 14 14 14 15 14 15 16 18 20 22 21 18 16 21 23 12 12 13 15 17 17 14 14 14
21 19 17 15 13 11 13 15 16 16 17 17 17 17 19 20 20 21 20 17 16 17 18 15 15 16 17 18 18 14 15 14
25 21 19 18 15 14 14 16 18 18 19 19 19 20 22 22 22 22 23 17 15 14 14 13 15 18 20 19 17 16 17 16
23 24 24 20 16 16 15 16 17 19 20 21 20 23 23 25 25 26 26 23 18 22 23 19 17 21 24 22 19 16 17 16
24 23 22 23 20 17 12 12 13 15 16 20 20 24 24 26 27 28 31 31 20 24 24 22 26 24 24 26 21 19 19 14
29 26 25 21 19 14 17 20 18 16 18 21 23 24 24 25 25 26 31 32 30 27 25 23 24 26 26 27 23 20 18 18
36 33 31 24 24 28 24 23 18 20 21 21 21 23 23 25 24 26 26 28 30 29 26 29 30 27 28 27 25 20 19 17
38 34 31 26 32 29 26 22 20 19 18 20 21 23 23 23 23 21 25 27 28 29 26 26 30 30 30 28 26 17 16 14
34 34 32 27 32 26 22 20 20 20 17 18 21 20 22 23 22 24 28 26 27 22 23 25 26 34 30 31 24 24 23 9
35 36 34 29 24 21 20 18 16 16 15 16 19 20 21 21 23 25 25 25 23 18 25 30 30 25 27 27 25 22 21 19
35 36 34 30 27 25 20 20 17 15 18 18 19 22 23 23 24 27 25 24 19 18 19 35 33 29 27 26 24 22 22 21
35 35 34 31 30 33 32 26 20 18 20 20 22 21 23 23 23 24 24 24 21 18 21 26 37 27 27 24 22 21 18 22
33 32 35 32 33 36 29 26 20 18 17 19 22 24 23 22 24 26 27 26 25 24 30 29 32 26 29 28 22 24 23 23
29 31 34 31 34 31 24 19 17 17 15 16 22 22 22 22 23 25 24 26 28 30 35 34 40 36 30 33 20 15 26 24
26 30 32 31 38 28 27 26 28 21 20 17 15 16 18 19 21 24 26 26 31 32 33 39 41 39 33 30 28 25 28 17
34 31 30 34 35 29 28 23 20 15 13 13 15 20 20 18 19 21 24 29 33 36 35 42 47 42 38 29 27 19 26 23
38 33 33 34 30 29 29 26 18 18 17 19 22 22 20 21 23 25 26 30 36 39 32 38 48 48 40 34 31 25 29 23
40 38 35 33 30 31 27 22 21 21 19 19 22 20 18 16 13 15 22 24 37 38 33 39 45 50 43 38 34 28 17 25
36 39 35 35 33 32 24 23 25 18 16 18 20 20 14 11 9 7 12 15 17 31 40 43 49 50 43 38 34 27 29 20
Wind_Direction
191 194 190 191 203 211 217 216 215 212 214 214 210 212 218 215 209 201 202 198 197 183 226 206 219 188 171 163 164 162 159 163
207 203 200 203 210 213 220 223 220 211 210 213 213 213 217 213 211 208 205 199 212 210 214 211 192 195 186 172 175 172 176 176
215 210 206 209 213 217 224 226 225 217 212 211 211 216 214 216 216 210 207 201 198 188 189 192 192 194 197 186 181 175 170 176
220 211 211 211 211 219 222 228 229 226 219 217 214 218 221 218 215 210 204 198 198 193 198 186 212 201 197 191 180 191 182 180
226 221 212 211 209 222 219 227 229 228 227 228 221 222 221 216 210 208 209 200 223 245 224 214 204 204 199 188 185 185 183 195
218 236 223 210 211 219 221 224 230 222 225 225 223 218 218 214 216 215 215 213 242 220 221 223 205 211 205 191 192 207 208 222
214 214 232 211 202 219 202 213 226 220 228 227 224 224 223 215 219 217 214 229 238 215 219 209 213 210 209 195 186 185 206 206
210 212 231 210 190 209 218 222 230 222 225 235 229 229 225 220 222 220 227 221 212 213 220 223 220 209 211 192 172 176 192 198
210 219 222 213 205 219 221 226 231 236 231 235 232 230 228 227 220 216 213 213 217 220 228 231 228 209 199 178 174 177 172 173
219 213 225 216 214 219 224 227 234 239 241 226 232 229 228 222 215 212 215 222 218 224 220 225 201 202 192 173 183 187 185 198
218 208 226 220 211 206 229 234 233 235 233 222 222 221 216 219 216 216 209 214 217 224 214 210 211 184 190 178 179 188 192 187
214 202 218 210 197 195 214 235 238 225 224 223 226 222 216 214 214 218 218 214 219 218 214 212 205 191 185 174 180 179 182 181
212 197 215 209 195 199 198 219 231 224 223 230 226 217 216 217 226 225 220 218 227 227 201 208 194 190 166 176 168 179 185 186
202 201 215 211 196 208 210 215 225 234 227 229 216 218 218 222 228 229 232 232 234 233 198 184 192 190 181 171 158 165 179 183
191 199 216 208 197 209 198 205 206 221 224 218 223 224 225 230 233 229 229 230 228 226 206 200 187 193 193 177 158 174 186 202
194 204 216 202 205 199 207 201 206 218 221 221 225 226 227 227 229 231 228 228 223 212 217 207 197 192 191 192 193 191 175 186
202 199 206 207 210 193 205 202 208 215 199 206 209 211 213 223 228 229 229 229 226 222 224 220 199 194 189 190 193 186 208 193
197 191 200 208 212 192 206 203 195 196 197 204 211 224 225 226 235 236 238 237 224 226 225 218 205 198 195 186 194 194 194 200
189 187 190 199 205 196 203 197 195 204 209 211 211 212 218 224 228 237 238 230 237 226 224 212 219 196 197 197 198 188 196 210
177 186 185 196 200 200 199 196 198 197 213 206 214 212 207 207 221 251 232 226 238 221 222 216 212 199 195 198 203 199 211 205